Location: Lafig�re
(44.4503°N, 4.0357°E)
Time: 19:03:41
(UTC+00:00)

Milstar 3 Cent rocket - Visible Passes

Search period start: 16 January 2021 00:00
Search period end: 26 January 2021 00:00
Orbit: 706 x 5147 km, 28.3° (Epoch: 16 January)

Date Brightness Start Highest point End Pass type
(mag) Time Alt. Az. Time Alt. Az. Time Alt. Az.
16 Jan 6.2 16:32:35 10° WSW 17:03:46 54° S 17:24:50 10° ESE visible
16 Jan 5.8 19:22:39 10° W 19:47:07 36° SSW 19:59:27 15° SSE visible
17 Jan 6.1 17:26:32 10° W 17:56:49 50° SSW 18:15:55 10° SE visible
17 Jan 5.9 20:18:47 10° W 20:38:11 26° SW 20:48:16 15° S visible
18 Jan 6.0 18:21:08 10° W 18:49:13 43° SSW 19:06:25 10° SE visible
18 Jan 6.1 21:17:12 10° W 21:28:40 16° SW 21:37:05 10° SSW visible
19 Jan 6.3 16:26:28 10° WSW 16:57:26 53° SSW 17:19:56 10° ESE visible
19 Jan 6.1 19:16:31 10° W 19:40:55 33° SW 19:56:05 10° SSE visible
20 Jan 6.2 17:20:24 10° W 17:50:29 48° SSW 18:10:56 10° SE visible
20 Jan 6.2 20:13:19 10° W 20:31:55 23° SW 20:44:25 10° S visible
21 Jan 6.2 18:15:02 10° W 18:42:50 40° SSW 19:01:12 10° SSE visible
21 Jan 6.4 21:14:14 10° WSW 21:22:23 13° SW 21:29:04 10° SW visible
22 Jan 6.4 16:20:36 10° W 16:50:57 52° SSW 17:14:46 10° SE visible
22 Jan 6.3 19:10:43 10° W 19:34:28 30° SW 19:50:26 10° S visible
23 Jan 6.4 17:14:30 10° W 17:43:56 45° SSW 18:05:37 10° SE visible
23 Jan 6.5 20:08:32 10° W 20:25:26 19° SW 20:37:49 10° SSW visible
24 Jan 6.4 18:09:14 10° W 18:36:13 36° SW 18:55:34 10° SSE visible
25 Jan 6.5 19:05:24 10° W 19:27:48 26° SW 19:44:12 10° S visible
